Location: Izdebno
(52.6670°N, 16.2170°E)
Time: 22:52:11
(UTC+01:00)

Vanguard 3 - Visible Passes

Search period start: 20 February 2024 00:00
Search period end: 01 March 2024 00:00
Orbit: 508 x 3239 km, 33.3° (Epoch: 19 February)

Date Brightness Start Highest point End Pass type
(mag) Time Alt. Az. Time Alt. Az. Time Alt. Az.
20 Feb 10.8 20:22:43 10° S 20:32:26 20° SSE 20:32:26 20° SSE visible
20 Feb 11.0 22:32:46 10° SW 22:36:45 17° SW 22:36:45 17° SW visible
21 Feb 10.9 19:08:29 10° SSE 19:16:48 14° SE 19:20:01 14° SE visible
21 Feb 10.7 21:14:34 10° SSW 21:24:21 25° S 21:24:21 25° S visible
21 Feb 11.2 23:27:10 10° WSW 23:28:41 13° SW 23:28:41 13° SW visible
22 Feb 10.6 19:57:41 10° SSW 20:10:54 23° SSE 20:11:55 23° SE visible
22 Feb 10.7 22:08:01 10° SW 22:16:14 25° SSW 22:16:14 25° SSW visible
23 Feb 10.9 18:42:59 10° S 18:52:46 16° SE 18:59:27 13° ESE visible
23 Feb 10.5 20:49:50 10° SSW 21:03:46 30° SSE 21:03:46 30° SSE visible
23 Feb 10.9 23:02:29 10° WSW 23:08:05 21° SW 23:08:05 21° SW visible
24 Feb 10.6 19:32:55 10° SSW 19:46:48 25° SSE 19:51:14 23° SE visible
24 Feb 10.5 21:43:24 10° SW 21:55:33 33° SSW 21:55:33 33° SSW visible
24 Feb 11.2 23:57:39 10° WSW 23:59:52 14° WSW 23:59:52 14° WSW visible
25 Feb 10.9 18:17:59 10° S 18:28:39 18° SE 18:38:39 11° ESE visible
25 Feb 10.4 20:25:18 10° SW 20:41:11 33° SSE 20:42:58 32° SSE visible
25 Feb 10.7 22:37:54 10° WSW 22:47:17 29° SW 22:47:17 29° SW visible
26 Feb 10.6 19:08:26 10° SSW 19:22:37 27° SSE 19:30:19 21° ESE visible
26 Feb 10.3 21:18:57 10° SW 21:34:38 37° S 21:34:38 37° S visible
26 Feb 10.9 23:33:05 10° WSW 23:38:56 21° WSW 23:38:56 21° WSW visible
27 Feb 11.0 17:53:24 10° S 18:04:27 19° SE 18:15:52 10° ESE visible
27 Feb 10.4 20:00:59 10° SW 20:16:59 34° SSE 20:21:55 31° SE visible
27 Feb 10.4 22:13:27 10° WSW 22:26:13 35° SSW 22:26:13 35° SSW visible
28 Feb 11.2 00:28:53 10° WSW 00:30:31 13° WSW 00:30:31 13° WSW visible
28 Feb 10.7 18:44:13 10° SSW 18:58:22 28° SSE 19:09:09 17° ESE visible
28 Feb 10.2 20:54:40 10° SW 21:11:36 39° S 21:13:27 38° SSE visible
28 Feb 10.7 23:08:36 10° WSW 23:17:44 28° SW 23:17:44 28° SW visible
29 Feb 10.4 19:36:52 10° SW 19:52:41 35° SSE 20:00:37 27° SE visible
29 Feb 10.3 21:49:09 10° WSW 22:04:54 39° SSW 22:04:54 39° SSW visible
